| time (UTC) | temp C | wind direction | speed KPH | gust KPH | rain 1hr cm | rain 24hr cm | rain mn cm | humidity % | barometer mb |
| 20260903195517 | 31 | 121 | 1.6 | 14.5 | 0.00 | 0.00 | 0.00 | 22 | 1015.5 |
| 20260903195015 | 31 | 102 | 4.8 | 14.5 | 0.00 | 0.00 | 0.00 | 21 | 1015.6 |
| 20260903194510 | 31 | 29 | 6.4 | 14.5 | 0.00 | 0.00 | 0.00 | 22 | 1015.6 |
| 20260903194007 | 31 | 26 | 3.2 | 16.1 | 0.00 | 0.00 | 0.00 | 22 | 1015.6 |
| 20260903193509 | 31 | 164 | 6.4 | 16.1 | 0.00 | 0.00 | 0.00 | 22 | 1015.6 |
| 20260903193023 | 31 | 142 | 3.2 | 12.9 | 0.00 | 0.00 | 0.00 | 22 | 1015.7 |
| 20260903192516 | 31 | 140 | 4.8 | 12.9 | 0.00 | 0.00 | 0.00 | 22 | 1015.7 |
| 20260903192017 | 31 | 15 | 3.2 | 9.7 | 0.00 | 0.00 | 0.00 | 22 | 1015.8 |
| 20260903191533 | 31 | 111 | 3.2 | 11.3 | 0.00 | 0.00 | 0.00 | 21 | 1015.9 |
| 20260903191016 | 31 | 109 | 1.6 | 11.3 | 0.00 | 0.00 | 0.00 | 21 | 1015.8 |
| 20260903190507 | 31 | 102 | 3.2 | 11.3 | 0.00 | 0.00 | 0.00 | 22 | 1015.9 |
| 20260903190012 | 31 | 109 | 3.2 | 8.0 | 0.00 | 0.00 | 0.00 | 22 | 1015.9 |
| 20260903185511 | 31 | 185 | 3.2 | 11.3 | 0.00 | 0.00 | 0.00 | 22 | 1016.1 |
| 20260903185015 | 31 | 59 | 1.6 | 11.3 | 0.00 | 0.00 | 0.00 | 21 | 1016.1 |
| 20260903184528 | 31 | 58 | 3.2 | 14.5 | 0.00 | 0.00 | 0.00 | 22 | 1016.1 |
| 20260903184004 | 31 | 148 | 1.6 | 14.5 | 0.00 | 0.00 | 0.00 | 22 | 1016.2 |
| 20260903183506 | 31 | 119 | 3.2 | 8.0 | 0.00 | 0.00 | 0.00 | 23 | 1016.2 |
| 20260903183008 | 31 | 15 | 1.6 | 9.7 | 0.00 | 0.00 | 0.00 | 22 | 1016.3 |
| 20260903182508 | 30 | 141 | 4.8 | 12.9 | 0.00 | 0.00 | 0.00 | 22 | 1016.3 |
| 20260903182008 | 30 | 46 | 1.6 | 16.1 | 0.00 | 0.00 | 0.00 | 23 | 1016.4 |
| 20260903181522 | 30 | 134 | 3.2 | 16.1 | 0.00 | 0.00 | 0.00 | 24 | 1016.5 |
| 20260903181012 | 30 | 114 | 1.6 | 9.7 | 0.00 | 0.00 | 0.00 | 22 | 1016.6 |
| 20260903180514 | 30 | 132 | 3.2 | 9.7 | 0.00 | 0.00 | 0.00 | 24 | 1016.7 |
| 20260903180003 | 30 | 58 | 3.2 | 12.9 | 0.00 | 0.00 | 0.00 | 24 | 1016.8 |
| 20260903175505 | 30 | 137 | 4.8 | 12.9 | 0.00 | 0.00 | 0.00 | 24 | 1016.8 |
| 20260903175007 | 30 | 30 | 1.6 | 11.3 | 0.00 | 0.00 | 0.00 | 23 | 1016.9 |
| 20260903174517 | 30 | 111 | 3.2 | 9.7 | 0.00 | 0.00 | 0.00 | 24 | 1017.0 |
| 20260903174014 | 30 | 138 | 3.2 | 8.0 | 0.00 | 0.00 | 0.00 | 24 | 1017.1 |
| 20260903173531 | 30 | 205 | 1.6 | 12.9 | 0.00 | 0.00 | 0.00 | 26 | 1017.1 |
| 20260903173028 | 30 | 159 | 1.6 | 14.5 | 0.00 | 0.00 | 0.00 | 24 | 1017.0 |
| 20260903172518 | 30 | 80 | 1.6 | 14.5 | 0.00 | 0.00 | 0.00 | 25 | 1017.1 |
| 20260903172003 | 30 | 219 | 1.6 | 9.7 | 0.00 | 0.00 | 0.00 | 26 | 1017.1 |
| 20260903171507 | 30 | 51 | 3.2 | 9.7 | 0.00 | 0.00 | 0.00 | 24 | 1017.1 |
| 20260903171007 | 30 | 242 | 1.6 | 9.7 | 0.00 | 0.00 | 0.00 | 24 | 1017.0 |
| 20260903170510 | 30 | 190 | 1.6 | 11.3 | 0.00 | 0.00 | 0.00 | 24 | 1017.0 |
| 20260903170029 | 30 | 27 | 3.2 | 11.3 | 0.00 | 0.00 | 0.00 | 24 | 1017.1 |
| 20260903165511 | 30 | 211 | 1.6 | 9.7 | 0.00 | 0.00 | 0.00 | 23 | 1016.9 |
| 20260903165015 | 30 | 101 | 3.2 | 9.7 | 0.00 | 0.00 | 0.00 | 24 | 1017.0 |
| 20260903164529 | 30 | 70 | 1.6 | 9.7 | 0.00 | 0.00 | 0.00 | 25 | 1016.9 |
| 20260903164004 | 30 | 104 | 1.6 | 9.7 | 0.00 | 0.00 | 0.00 | 24 | 1016.9 |
| 20260903163508 | 30 | 144 | 1.6 | 11.3 | 0.00 | 0.00 | 0.00 | 24 | 1017.0 |
| 20260903163012 | 30 | 171 | 3.2 | 11.3 | 0.00 | 0.00 | 0.00 | 24 | 1017.0 |
| 20260903162513 | 29 | 117 | 1.6 | 9.7 | 0.00 | 0.00 | 0.00 | 25 | 1016.9 |
| 20260903162012 | 29 | 91 | 3.2 | 8.0 | 0.00 | 0.00 | 0.00 | 24 | 1017.0 |
| 20260903161526 | 28 | 94 | 3.2 | 8.0 | 0.00 | 0.00 | 0.00 | 25 | 1016.8 |
| 20260903161019 | 28 | 37 | 1.6 | 4.8 | 0.00 | 0.00 | 0.00 | 26 | 1016.8 |
| 20260903160518 | 28 | 134 | 1.6 | 6.4 | 0.00 | 0.00 | 0.00 | 26 | 1016.9 |
| 20260903160008 | 28 | 157 | 1.6 | 11.3 | 0.00 | 0.00 | 0.00 | 27 | 1016.8 |
| 20260903155507 | 27 | 253 | 0.0 | 11.3 | 0.00 | 0.00 | 0.00 | 27 | 1016.8 |
| 20260903155006 | 27 | 57 | 3.2 | 9.7 | 0.00 | 0.00 | 0.00 | 27 | 1017.0 |
| 20260903154515 | 27 | 267 | 1.6 | 4.8 | 0.00 | 0.00 | 0.00 | 27 | 1016.9 |
| 20260903154013 | 27 | 352 | 1.6 | 4.8 | 0.00 | 0.00 | 0.00 | 28 | 1017.0 |
| 20260903153513 | 27 | 242 | 1.6 | 4.8 | 0.00 | 0.00 | 0.00 | 28 | 1017.1 |
| 20260903153031 | 27 | 339 | 1.6 | 8.0 | 0.00 | 0.00 | 0.00 | 29 | 1017.1 |
| 20260903152515 | 27 | 352 | 3.2 | 8.0 | 0.00 | 0.00 | 0.00 | 28 | 1017.2 |
| 20260903152005 | 26 | 351 | 0.0 | 4.8 | 0.00 | 0.00 | 0.00 | 29 | 1017.2 |
| 20260903151511 | 26 | 277 | 1.6 | 6.4 | 0.00 | 0.00 | 0.00 | 31 | 1017.2 |
| 20260903151011 | 26 | 250 | 1.6 | 11.3 | 0.00 | 0.00 | 0.00 | 31 | 1017.3 |
| 20260903150511 | 26 | 299 | 3.2 | 12.9 | 0.00 | 0.00 | 0.00 | 31 | 1017.3 |
| 20260903150039 | 25 | 226 | 1.6 | 16.1 | 0.00 | 0.00 | 0.00 | 31 | 1017.4 |
| 20260903145515 | 25 | 284 | 3.2 | 17.7 | 0.00 | 0.00 | 0.00 | 32 | 1017.4 |
| 20260903145015 | 25 | 268 | 3.2 | 19.3 | 0.00 | 0.00 | 0.00 | 31 | 1017.5 |
| 20260903144532 | 24 | 244 | 8.0 | 17.7 | 0.00 | 0.00 | 0.00 | 32 | 1017.4 |
| 20260903144004 | 24 | 286 | 6.4 | 17.7 | 0.00 | 0.00 | 0.00 | 34 | 1017.4 |
| 20260903143508 | 23 | 221 | 3.2 | 17.7 | 0.00 | 0.00 | 0.00 | 35 | 1017.4 |
| 20260903143026 | 22 | 248 | 8.0 | 17.7 | 0.00 | 0.00 | 0.00 | 37 | 1017.4 |
| 20260903142510 | 20 | 233 | 4.8 | 16.1 | 0.00 | 0.00 | 0.00 | 54 | 1017.4 |
| 20260903142011 | 18 | 199 | 3.2 | 11.3 | 0.00 | 0.00 | 0.00 | 54 | 1017.4 |
| 20260903141530 | 18 | 222 | 1.6 | 3.2 | 0.00 | 0.00 | 0.00 | 55 | 1017.4 |
| 20260903141015 | 17 | 200 | 0.0 | 3.2 | 0.00 | 0.00 | 0.00 | 57 | 1017.4 |
| 20260903140518 | 17 | 300 | 1.6 | 6.4 | 0.00 | 0.00 | 0.00 | 60 | 1017.5 |
| 20260903140008 | 16 | 217 | 0.0 | 6.4 | 0.00 | 0.00 | 0.00 | 61 | 1017.5 |
| 20260903135511 | 16 | 40 | 0.0 | 3.2 | 0.00 | 0.00 | 0.00 | 61 | 1017.4 |
| 20260903135011 | 15 | 342 | 0.0 | 3.2 | 0.00 | 0.00 | 0.00 | 63 | 1017.4 |
| 20260903134522 | 15 | 229 | 0.0 | 3.2 | 0.00 | 0.00 | 0.00 | 63 | 1017.4 |
| 20260903134017 | 15 | 170 | 0.0 | 3.2 | 0.00 | 0.00 | 0.00 | 64 | 1017.2 |
| 20260903133517 | 14 | 223 | 1.6 | 3.2 | 0.00 | 0.00 | 0.00 | 68 | 1017.3 |
| 20260903133034 | 13 | 162 | 0.0 | 3.2 | 0.00 | 0.00 | 0.00 | 67 | 1017.2 |
| 20260903132519 | 13 | 155 | 0.0 | 3.2 | 0.00 | 0.00 | 0.00 | 69 | 1017.1 |
| 20260903132004 | 12 | 178 | 1.6 | 3.2 | 0.00 | 0.00 | 0.00 | 72 | 1017.2 |
| 20260903131511 | 12 | 186 | 0.0 | 3.2 | 0.00 | 0.00 | 0.00 | 72 | 1017.1 |
| 20260903131013 | 12 | 185 | 0.0 | 3.2 | 0.00 | 0.00 | 0.00 | 72 | 1017.2 |
| 20260903130512 | 12 | 185 | 0.0 | 3.2 | 0.00 | 0.00 | 0.00 | 72 | 1017.1 |
| 20260903130027 | 12 | 186 | 0.0 | 3.2 | 0.00 | 0.00 | 0.00 | 73 | 1017.1 |
| 20260903125516 | 12 | 186 | 0.0 | 3.2 | 0.00 | 0.00 | 0.00 | 72 | 1016.8 |
| 20260903125016 | 12 | 186 | 0.0 | 3.2 | 0.00 | 0.00 | 0.00 | 72 | 1016.8 |
| 20260903124508 | 12 | 186 | 0.0 | 3.2 | 0.00 | 0.00 | 0.00 | 71 | 1016.7 |
| 20260903124002 | 12 | 193 | 1.6 | 3.2 | 0.00 | 0.00 | 0.00 | 72 | 1016.7 |
| 20260903123502 | 12 | 200 | 0.0 | 3.2 | 0.00 | 0.00 | 0.00 | 72 | 1016.7 |
| 20260903123002 | 12 | 240 | 0.0 | 3.2 | 0.00 | 0.00 | 0.00 | 71 | 1016.6 |
| 20260903122502 | 12 | 192 | 0.0 | 3.2 | 0.00 | 0.00 | 0.00 | 71 | 1016.6 |
| 20260903122003 | 12 | 192 | 0.0 | 3.2 | 0.00 | 0.00 | 0.00 | 71 | 1016.5 |
| 20260903121504 | 12 | 192 | 0.0 | 3.2 | 0.00 | 0.00 | 0.00 | 70 | 1016.6 |
| 20260903121004 | 12 | 192 | 0.0 | 3.2 | 0.00 | 0.00 | 0.00 | 71 | 1016.6 |
| 20260903120502 | 12 | 208 | 0.0 | 3.2 | 0.00 | 0.00 | 0.00 | 71 | 1016.5 |
| 20260903120004 | 12 | 225 | 0.0 | 3.2 | 0.00 | 0.00 | 0.00 | 71 | 1016.5 |
| 20260903115501 | 12 | 191 | 0.0 | 3.2 | 0.00 | 0.00 | 0.00 | 71 | 1016.5 |
| 20260903115002 | 12 | 191 | 1.6 | 3.2 | 0.00 | 0.00 | 0.00 | 70 | 1016.5 |
| 20260903114503 | 12 | 195 | 1.6 | 3.2 | 0.00 | 0.00 | 0.00 | 71 | 1016.5 |
| 20260903114002 | 12 | 194 | 0.0 | 3.2 | 0.00 | 0.00 | 0.00 | 70 | 1016.5 |
| 20260903113504 | 12 | 194 | 0.0 | 3.2 | 0.00 | 0.00 | 0.00 | 70 | 1016.5 |
| 20260903113003 | 13 | 194 | 0.0 | 3.2 | 0.00 | 0.00 | 0.00 | 70 | 1016.4 |
| 20260903112503 | 13 | 194 | 0.0 | 3.2 | 0.00 | 0.00 | 0.00 | 70 | 1016.4 |
| 20260903112003 | 13 | 194 | 0.0 | 3.2 | 0.00 | 0.00 | 0.00 | 69 | 1016.4 |
| 20260903111503 | 13 | 180 | 1.6 | 3.2 | 0.00 | 0.00 | 0.00 | 69 | 1016.4 |
| 20260903111002 | 13 | 202 | 0.0 | 3.2 | 0.00 | 0.00 | 0.00 | 67 | 1016.4 |
| 20260903110503 | 13 | 202 | 0.0 | 3.2 | 0.00 | 0.00 | 0.00 | 68 | 1016.4 |
| 20260903110003 | 13 | 202 | 0.0 | 3.2 | 0.00 | 0.00 | 0.00 | 66 | 1016.4 |
| 20260903105503 | 13 | 202 | 0.0 | 3.2 | 0.00 | 0.00 | 0.00 | 67 | 1016.5 |
| 20260903105004 | 13 | 202 | 0.0 | 3.2 | 0.00 | 0.00 | 0.00 | 66 | 1016.6 |
| 20260903104503 | 13 | 198 | 0.0 | 3.2 | 0.00 | 0.00 | 0.00 | 68 | 1016.5 |
| 20260903104004 | 13 | 180 | 0.0 | 3.2 | 0.00 | 0.00 | 0.00 | 68 | 1016.5 |
| 20260903103503 | 13 | 180 | 1.6 | 4.8 | 0.00 | 0.00 | 0.00 | 68 | 1016.5 |
| 20260903103004 | 13 | 216 | 1.6 | 4.8 | 0.00 | 0.00 | 0.00 | 65 | 1016.4 |
| 20260903102503 | 13 | 207 | 0.0 | 3.2 | 0.00 | 0.00 | 0.00 | 69 | 1016.4 |
| 20260903102002 | 13 | 191 | 0.0 | 3.2 | 0.00 | 0.00 | 0.00 | 69 | 1016.5 |
| 20260903101505 | 13 | 197 | 0.0 | 3.2 | 0.00 | 0.00 | 0.00 | 68 | 1016.6 |
| 20260903101002 | 13 | 197 | 0.0 | 3.2 | 0.00 | 0.00 | 0.00 | 68 | 1016.7 |
| 20260903100503 | 13 | 197 | 0.0 | 3.2 | 0.00 | 0.00 | 0.00 | 68 | 1016.6 |
| 20260903100004 | 13 | 209 | 0.0 | 3.2 | 0.00 | 0.00 | 0.00 | 68 | 1016.5 |
| 20260903095502 | 13 | 209 | 0.0 | 3.2 | 0.00 | 0.00 | 0.00 | 68 | 1016.5 |
| 20260903095004 | 13 | 189 | 0.0 | 3.2 | 0.00 | 0.00 | 0.00 | 67 | 1016.6 |
| 20260903094504 | 14 | 191 | 0.0 | 3.2 | 0.00 | 0.00 | 0.00 | 68 | 1016.7 |
| 20260903094004 | 14 | 191 | 0.0 | 3.2 | 0.00 | 0.00 | 0.00 | 68 | 1016.8 |
| 20260903093503 | 14 | 192 | 0.0 | 3.2 | 0.00 | 0.00 | 0.00 | 67 | 1016.8 |
| 20260903090003 | 15 | 196 | 0.0 | 3.2 | 0.00 | 0.00 | 0.00 | 64 | 1016.6 |
| 20260903085503 | 15 | 196 | 0.0 | 3.2 | 0.00 | 0.00 | 0.00 | 63 | 1016.6 |
| 20260903085002 | 15 | 196 | 0.0 | 3.2 | 0.00 | 0.00 | 0.00 | 62 | 1016.5 |
| 20260903084509 | 15 | 211 | 0.0 | 3.2 | 0.00 | 0.00 | 0.00 | 62 | 1016.4 |
| 20260903084003 | 15 | 212 | 0.0 | 3.2 | 0.00 | 0.00 | 0.00 | 63 | 1016.5 |
| 20260903083505 | 15 | 212 | 0.0 | 3.2 | 0.00 | 0.00 | 0.00 | 63 | 1016.5 |
| 20260903083003 | 16 | 212 | 0.0 | 3.2 | 0.00 | 0.00 | 0.00 | 63 | 1016.5 |
| 20260903082503 | 16 | 212 | 0.0 | 0.0 | 0.00 | 0.00 | 0.00 | 62 | 1016.5 |
| 20260903082003 | 16 | 212 | 0.0 | 3.2 | 0.00 | 0.00 | 0.00 | 61 | 1016.5 |
| 20260903081503 | 16 | 212 | 0.0 | 3.2 | 0.00 | 0.00 | 0.00 | 61 | 1016.5 |
| 20260903081002 | 16 | 212 | 0.0 | 3.2 | 0.00 | 0.00 | 0.00 | 61 | 1016.5 |
| 20260903080502 | 16 | 212 | 0.0 | 3.2 | 0.00 | 0.00 | 0.00 | 61 | 1016.6 |
| 20260903080006 | 16 | 215 | 0.0 | 3.2 | 0.00 | 0.00 | 0.00 | 61 | 1016.6 |
| 20260903075503 | 17 | 204 | 0.0 | 3.2 | 0.00 | 0.00 | 0.00 | 60 | 1016.6 |
| 20260903075003 | 17 | 215 | 0.0 | 3.2 | 0.00 | 0.00 | 0.00 | 60 | 1016.6 |
| 20260903074503 | 17 | 203 | 0.0 | 3.2 | 0.00 | 0.00 | 0.00 | 58 | 1016.5 |
| 20260903074003 | 17 | 215 | 0.0 | 3.2 | 0.00 | 0.00 | 0.00 | 57 | 1016.5 |
| 20260903073503 | 17 | 211 | 0.0 | 3.2 | 0.00 | 0.00 | 0.00 | 57 | 1016.5 |
| 20260903073004 | 18 | 211 | 0.0 | 3.2 | 0.00 | 0.00 | 0.00 | 55 | 1016.5 |
| 20260903072502 | 18 | 211 | 0.0 | 3.2 | 0.00 | 0.00 | 0.00 | 55 | 1016.4 |
| 20260903072003 | 18 | 211 | 0.0 | 3.2 | 0.00 | 0.00 | 0.00 | 56 | 1016.6 |
| 20260903071504 | 18 | 211 | 0.0 | 3.2 | 0.00 | 0.00 | 0.00 | 54 | 1016.7 |
| 20260903071005 | 18 | 211 | 0.0 | 3.2 | 0.00 | 0.00 | 0.00 | 54 | 1016.8 |
| 20260903070503 | 18 | 206 | 0.0 | 3.2 | 0.00 | 0.00 | 0.00 | 55 | 1016.8 |
| 20260903070001 | 18 | 205 | 0.0 | 3.2 | 0.00 | 0.00 | 0.00 | 54 | 1016.9 |
| 20260903065501 | 18 | 205 | 0.0 | 3.2 | 0.00 | 0.00 | 0.00 | 54 | 1016.9 |
| 20260903065003 | 18 | 202 | 0.0 | 3.2 | 0.00 | 0.00 | 0.00 | 52 | 1017.0 |
| 20260903064503 | 18 | 200 | 0.0 | 3.2 | 0.00 | 0.00 | 0.00 | 52 | 1016.9 |
| 20260903064003 | 18 | 200 | 0.0 | 3.2 | 0.00 | 0.00 | 0.00 | 52 | 1016.9 |
| 20260903063502 | 18 | 219 | 0.0 | 3.2 | 0.00 | 0.00 | 0.00 | 52 | 1017.0 |
| 20260903063004 | 18 | 234 | 0.0 | 3.2 | 0.00 | 0.00 | 0.00 | 54 | 1017.0 |
| 20260903062505 | 18 | 234 | 0.0 | 3.2 | 0.00 | 0.00 | 0.00 | 55 | 1017.1 |
| 20260903062005 | 18 | 162 | 0.0 | 3.2 | 0.00 | 0.00 | 0.00 | 56 | 1017.1 |
| 20260903061510 | 18 | 178 | 0.0 | 3.2 | 0.00 | 0.00 | 0.00 | 56 | 1017.1 |
| 20260903061007 | 18 | 220 | 0.0 | 3.2 | 0.00 | 0.00 | 0.00 | 56 | 1017.1 |
| 20260903060503 | 18 | 197 | 0.0 | 3.2 | 0.00 | 0.00 | 0.00 | 58 | 1017.1 |
| 20260903060003 | 18 | 163 | 0.0 | 3.2 | 0.00 | 0.00 | 0.00 | 1017.1 | |
| 20260903055504 | 18 | 144 | 0.0 | 3.2 | 0.00 | 0.00 | 0.00 | 60 | 1017.1 |
| 20260903055002 | 18 | 144 | 0.0 | 3.2 | 0.00 | 0.00 | 0.00 | 60 | 1017.0 |
| 20260903054503 | 18 | 125 | 0.0 | 3.2 | 0.00 | 0.00 | 0.00 | 60 | 1017.1 |
| 20260903054002 | 18 | 136 | 0.0 | 3.2 | 0.00 | 0.00 | 0.00 | 60 | 1016.9 |
| 20260903053504 | 18 | 136 | 0.0 | 3.2 | 0.00 | 0.00 | 0.00 | 60 | 1017.0 |
| 20260903053005 | 18 | 127 | 0.0 | 3.2 | 0.00 | 0.00 | 0.00 | 59 | 1017.1 |
| 20260903052503 | 18 | 56 | 0.0 | 0.0 | 0.00 | 0.00 | 0.00 | 59 | 1017.0 |
| 20260903052002 | 18 | 54 | 0.0 | 3.2 | 0.00 | 0.00 | 0.00 | 58 | 1017.0 |
| 20260903051506 | 18 | 54 | 0.0 | 3.2 | 0.00 | 0.00 | 0.00 | 1016.9 | |
| 20260903051002 | 18 | 55 | 0.0 | 3.2 | 0.00 | 0.00 | 0.00 | 1017.1 | |
| 20260903050503 | 18 | 76 | 0.0 | 3.2 | 0.00 | 0.00 | 0.00 | 1017.1 | |
| 20260903050019 | 18 | 76 | 0.0 | 3.2 | 0.00 | 0.00 | 0.00 | 59 | 1017.1 |
| 20260903045504 | 19 | 86 | 0.0 | 3.2 | 0.00 | 0.00 | 0.00 | 59 | 1017.2 |
| 20260903045003 | 19 | 28 | 0.0 | 3.2 | 0.00 | 0.00 | 0.00 | 58 | 1017.1 |
| 20260903044516 | 19 | 28 | 0.0 | 3.2 | 0.00 | 0.00 | 0.00 | 57 | 1016.9 |
| 20260903044003 | 19 | 11 | 0.0 | 3.2 | 0.00 | 0.00 | 0.00 | 57 | 1017.0 |
| 20260903043503 | 19 | 61 | 0.0 | 3.2 | 0.00 | 0.00 | 0.00 | 58 | 1017.2 |
| 20260903043003 | 19 | 75 | 0.0 | 3.2 | 0.00 | 0.00 | 0.00 | 56 | 1017.2 |
| 20260903042502 | 19 | 175 | 0.0 | 3.2 | 0.00 | 0.00 | 0.00 | 56 | 1017.2 |
| 20260903042007 | 19 | 192 | 0.0 | 3.2 | 0.00 | 0.00 | 0.00 | 56 | 1017.3 |
| 20260903041510 | 19 | 176 | 0.0 | 3.2 | 0.00 | 0.00 | 0.00 | 1017.5 | |
| 20260903041003 | 19 | 157 | 0.0 | 3.2 | 0.00 | 0.00 | 0.00 | 55 | 1017.6 |
| 20260903040502 | 20 | 168 | 0.0 | 3.2 | 0.00 | 0.00 | 0.00 | 55 | 1017.4 |
| 20260903040008 | 20 | 190 | 0.0 | 3.2 | 0.00 | 0.00 | 0.00 | 55 | 1017.2 |
| 20260903035503 | 20 | 181 | 0.0 | 3.2 | 0.00 | 0.00 | 0.00 | 54 | 1017.1 |
| 20260903035002 | 20 | 184 | 0.0 | 3.2 | 0.00 | 0.00 | 0.00 | 54 | 1017.1 |
| 20260903034506 | 20 | 184 | 1.6 | 3.2 | 0.00 | 0.00 | 0.00 | 53 | 1017.0 |
| 20260903034004 | 20 | 105 | 0.0 | 3.2 | 0.00 | 0.00 | 0.00 | 52 | 1017.0 |
| 20260903033507 | 21 | 73 | 0.0 | 3.2 | 0.00 | 0.00 | 0.00 | 52 | 1016.9 |
| 20260903033003 | 21 | 71 | 0.0 | 3.2 | 0.00 | 0.00 | 0.00 | 51 | 1016.8 |
| 20260903032504 | 21 | 113 | 0.0 | 3.2 | 0.00 | 0.00 | 0.00 | 50 | 1017.1 |
| 20260903032004 | 21 | 136 | 0.0 | 3.2 | 0.00 | 0.00 | 0.00 | 49 | 1017.2 |
| 20260903031506 | 21 | 217 | 0.0 | 4.8 | 0.00 | 0.00 | 0.00 | 48 | 1017.3 |
| 20260903031003 | 22 | 190 | 0.0 | 4.8 | 0.00 | 0.00 | 0.00 | 47 | 1017.3 |
| 20260903030506 | 22 | 159 | 0.0 | 3.2 | 0.00 | 0.00 | 0.00 | 47 | 1017.2 |
| 20260903030004 | 22 | 243 | 0.0 | 3.2 | 0.00 | 0.00 | 0.00 | 46 | 1017.1 |
| 20260903025503 | 22 | 243 | 0.0 | 3.2 | 0.00 | 0.00 | 0.00 | 46 | 1017.0 |
| 20260903025003 | 22 | 244 | 0.0 | 3.2 | 0.00 | 0.00 | 0.00 | 45 | 1016.9 |
| 20260903024504 | 22 | 229 | 0.0 | 6.4 | 0.00 | 0.00 | 0.00 | 45 | 1016.8 |
| 20260903024004 | 22 | 351 | 1.6 | 6.4 | 0.00 | 0.00 | 0.00 | 44 | 1016.8 |
| 20260903023503 | 23 | 13 | 1.6 | 4.8 | 0.00 | 0.00 | 0.00 | 45 | 1016.6 |
| 20260903023008 | 23 | 13 | 1.6 | 8.0 | 0.00 | 0.00 | 0.00 | 45 | 1016.6 |
| 20260903022504 | 23 | 40 | 3.2 | 8.0 | 0.00 | 0.00 | 0.00 | 44 | 1016.7 |
| 20260903022003 | 23 | 57 | 0.0 | 3.2 | 0.00 | 0.00 | 0.00 | 43 | 1016.8 |
| 20260903021505 | 23 | 210 | 0.0 | 3.2 | 0.00 | 0.00 | 0.00 | 42 | 1016.8 |
| 20260903021004 | 23 | 196 | 0.0 | 4.8 | 0.00 | 0.00 | 0.00 | 42 | 1016.5 |
| 20260903020506 | 24 | 34 | 1.6 | 4.8 | 0.00 | 0.00 | 0.00 | 40 | 1016.1 |
| 20260903020006 | 24 | 326 | 1.6 | 4.8 | 0.00 | 0.00 | 0.00 | 40 | 1015.9 |
| 20260903015506 | 24 | 19 | 0.0 | 1.6 | 0.00 | 0.00 | 0.00 | 40 | 1015.8 |
| 20260903015005 | 24 | 19 | 0.0 | 3.2 | 0.00 | 0.00 | 0.00 | 41 | 1015.9 |
| 20260903014507 | 24 | 19 | 0.0 | 3.2 | 0.00 | 0.00 | 0.00 | 40 | 1015.9 |
| 20260903014003 | 24 | 19 | 0.0 | 3.2 | 0.00 | 0.00 | 0.00 | 40 | 1015.9 |
| 20260903013503 | 24 | 18 | 0.0 | 3.2 | 0.00 | 0.00 | 0.00 | 39 | 1015.8 |
| 20260903013007 | 25 | 25 | 0.0 | 3.2 | 0.00 | 0.00 | 0.00 | 40 | 1015.6 |
| 20260903012504 | 25 | 25 | 0.0 | 3.2 | 0.00 | 0.00 | 0.00 | 39 | 1015.6 |
| 20260903012004 | 25 | 28 | 0.0 | 4.8 | 0.00 | 0.00 | 0.00 | 38 | 1015.6 |
| 20260903011507 | 25 | 55 | 1.6 | 4.8 | 0.00 | 0.00 | 0.00 | 38 | 1015.6 |
| 20260903011003 | 25 | 22 | 0.0 | 3.2 | 0.00 | 0.00 | 0.00 | 38 | 1015.6 |
| 20260903010505 | 26 | 18 | 0.0 | 3.2 | 0.00 | 0.00 | 0.00 | 39 | 1015.6 |
| 20260903010008 | 26 | 347 | 0.0 | 3.2 | 0.00 | 0.00 | 0.00 | 38 | 1015.4 |
| 20260903005504 | 26 | 342 | 0.0 | 3.2 | 0.00 | 0.00 | 0.00 | 36 | 1015.3 |
| 20260903005008 | 26 | 340 | 0.0 | 3.2 | 0.00 | 0.00 | 0.00 | 33 | 1015.4 |
| 20260903004507 | 27 | 338 | 0.0 | 3.2 | 0.00 | 0.00 | 0.00 | 32 | 1015.4 |
| 20260903004011 | 27 | 338 | 0.0 | 3.2 | 0.00 | 0.00 | 0.00 | 33 | 1015.4 |
| 20260903003504 | 27 | 319 | 0.0 | 3.2 | 0.00 | 0.00 | 0.00 | 32 | 1015.6 |
| 20260903003008 | 27 | 315 | 0.0 | 3.2 | 0.00 | 0.00 | 0.00 | 33 | 1015.6 |
| 20260903002507 | 27 | 315 | 0.0 | 3.2 | 0.00 | 0.00 | 0.00 | 32 | 1015.6 |
| 20260903002004 | 27 | 343 | 0.0 | 3.2 | 0.00 | 0.00 | 0.00 | 31 | 1015.6 |
| 20260903001508 | 27 | 283 | 0.0 | 3.2 | 0.00 | 0.00 | 0.00 | 30 | 1015.6 |
| 20260903001004 | 28 | 246 | 0.0 | 4.8 | 0.00 | 0.00 | 0.00 | 30 | 1015.4 |
| 20260903000507 | 28 | 272 | 1.6 | 9.7 | 0.00 | 0.00 | 0.00 | 29 | 1015.3 |
| 20260903000018 | 28 | 360 | 1.6 | 9.7 | 0.00 | 0.00 | 0.00 | 29 | 1015.2 |
| 20260902235507 | 28 | 254 | 1.6 | 6.4 | 0.00 | 0.00 | 0.00 | 29 | 1015.3 |
| 20260902235007 | 28 | 254 | 1.6 | 12.9 | 0.00 | 0.00 | 0.00 | 29 | 1015.3 |
| 20260902234514 | 28 | 265 | 4.8 | 12.9 | 0.00 | 0.00 | 0.00 | 28 | 1015.4 |
| 20260902234008 | 28 | 272 | 1.6 | 8.0 | 0.00 | 0.00 | 0.00 | 28 | 1015.4 |
| 20260902233507 | 28 | 292 | 1.6 | 14.5 | 0.00 | 0.00 | 0.00 | 29 | 1015.4 |
| 20260902233008 | 28 | 274 | 3.2 | 16.1 | 0.00 | 0.00 | 0.00 | 29 | 1015.5 |
| 20260902232507 | 28 | 207 | 3.2 | 16.1 | 0.00 | 0.00 | 0.00 | 28 | 1015.6 |
| 20260902232007 | 28 | 284 | 4.8 | 12.9 | 0.00 | 0.00 | 0.00 | 28 | 1015.8 |
| 20260902231521 | 28 | 317 | 3.2 | 8.0 | 0.00 | 0.00 | 0.00 | 27 | 1015.9 |
| 20260902231004 | 28 | 30 | 4.8 | 16.1 | 0.00 | 0.00 | 0.00 | 26 | 1015.9 |
| 20260902230506 | 28 | 180 | 4.8 | 16.1 | 0.00 | 0.00 | 0.00 | 25 | 1016.0 |
| 20260902230011 | 28 | 236 | 4.8 | 20.9 | 0.00 | 0.00 | 0.00 | 25 | 1016.0 |
| 20260902225508 | 28 | 241 | 3.2 | 25.7 | 0.00 | 0.00 | 0.00 | 24 | 1015.9 |
| 20260902225007 | 29 | 161 | 11.3 | 22.5 | 0.00 | 0.00 | 0.00 | 24 | 1015.9 |
| 20260902224510 | 30 | 247 | 11.3 | 17.7 | 0.00 | 0.00 | 0.00 | 24 | 1015.7 |
| 20260902224008 | 30 | 124 | 0.0 | 3.2 | 0.00 | 0.00 | 0.00 | 24 | 1015.5 |
| 20260902223509 | 31 | 110 | 0.0 | 3.2 | 0.00 | 0.00 | 0.00 | 24 | 1015.3 |
| 20260902223013 | 31 | 111 | 0.0 | 3.2 | 0.00 | 0.00 | 0.00 | 23 | 1015.1 |
| 20260902222509 | 31 | 212 | 0.0 | 3.2 | 0.00 | 0.00 | 0.00 | 22 | 1015.0 |
| 20260902222012 | 31 | 138 | 0.0 | 4.8 | 0.00 | 0.00 | 0.00 | 22 | 1015.0 |
| 20260902221516 | 31 | 156 | 0.0 | 4.8 | 0.00 | 0.00 | 0.00 | 21 | 1014.9 |
| 20260902221007 | 32 | 146 | 1.6 | 4.8 | 0.00 | 0.00 | 0.00 | 21 | 1014.9 |
| 20260902220508 | 32 | 171 | 0.0 | 8.0 | 0.00 | 0.00 | 0.00 | 21 | 1014.8 |
| 20260902220015 | 32 | 122 | 1.6 | 8.0 | 0.00 | 0.00 | 0.00 | 20 | 1015.0 |
| 20260902215508 | 32 | 139 | 1.6 | 9.7 | 0.00 | 0.00 | 0.00 | 22 | 1015.0 |
| 20260902215005 | 31 | 150 | 1.6 | 9.7 | 0.00 | 0.00 | 0.00 | 23 | 1015.0 |
| 20260902214510 | 31 | 352 | 3.2 | 9.7 | 0.00 | 0.00 | 0.00 | 22 | 1015.0 |
| 20260902214007 | 31 | 42 | 3.2 | 6.4 | 0.00 | 0.00 | 0.00 | 22 | 1015.1 |
| 20260902213507 | 31 | 157 | 1.6 | 11.3 | 0.00 | 0.00 | 0.00 | 22 | 1015.2 |
| 20260902213015 | 31 | 168 | 3.2 | 11.3 | 0.00 | 0.00 | 0.00 | 22 | 1015.2 |
| 20260902212506 | 31 | 136 | 3.2 | 11.3 | 0.00 | 0.00 | 0.00 | 23 | 1015.3 |
| 20260902212003 | 31 | 103 | 3.2 | 12.9 | 0.00 | 0.00 | 0.00 | 22 | 1015.3 |
| 20260902211511 | 31 | 92 | 4.8 | 12.9 | 0.00 | 0.00 | 0.00 | 24 | 1015.4 |
| 20260902211010 | 31 | 65 | 1.6 | 9.7 | 0.00 | 0.00 | 0.00 | 24 | 1015.4 |
| 20260902210507 | 31 | 141 | 1.6 | 4.8 | 0.00 | 0.00 | 0.00 | 23 | 1015.5 |
| 20260902210015 | 31 | 101 | 1.6 | 4.8 | 0.00 | 0.00 | 0.00 | 23 | 1015.7 |
| 20260902205508 | 31 | 48 | 0.0 | 4.8 | 0.00 | 0.00 | 0.00 | 22 | 1015.7 |
| 20260902205008 | 31 | 23 | 1.6 | 4.8 | 0.00 | 0.00 | 0.00 | 22 | 1016.0 |
| 20260902204512 | 31 | 87 | 1.6 | 11.3 | 0.00 | 0.00 | 0.00 | 22 | 1016.1 |
| 20260902204005 | 31 | 131 | 1.6 | 11.3 | 0.00 | 0.00 | 0.00 | 21 | 1016.3 |
| 20260902203506 | 31 | 153 | 1.6 | 11.3 | 0.00 | 0.00 | 0.00 | 21 | 1016.4 |
| 20260902203014 | 32 | 142 | 4.8 | 11.3 | 0.00 | 0.00 | 0.00 | 21 | 1016.4 |
| 20260902202508 | 32 | 209 | 1.6 | 6.4 | 0.00 | 0.00 | 0.00 | 21 | 1016.5 |
| 20260902202010 | 32 | 84 | 1.6 | 6.4 | 0.00 | 0.00 | 0.00 | 21 | 1016.6 |
| 20260902201514 | 32 | 101 | 0.0 | 6.4 | 0.00 | 0.00 | 0.00 | 22 | 1016.6 |
| 20260902201011 | 32 | 139 | 1.6 | 14.5 | 0.00 | 0.00 | 0.00 | 22 | 1016.8 |
| 20260902200510 | 32 | 61 | 3.2 | 14.5 | 0.00 | 0.00 | 0.00 | 22 | 1016.7 |
| 20260902200007 | 31 | 157 | 1.6 | 11.3 | 0.00 | 0.00 | 0.00 | 23 | 1016.8 |